User: anonymous   Login
Location: Unspecified
(0.0000°N, 0.0000°E)
Time: 00:50:37
(UTC+00:00)
Language:

STARLINK-3100 - Orbit

View from above orbital plane
View from above orbital plane
View from above satellite
View from above satellite

Ground track
Ground track

The orbit is defined by the following mean orbital elements,

1 49144U          26145.27512957 +.00000000 +00000-0 +74403-4 0 00003
2 49144  69.9995 101.3475 0003311 267.9018  92.1762 14.98331887    02
Epoch (UTC): 25 May 2026 06:36:11
Eccentricity: 0.0003311
inclination: 69.9995°
perigee height: 570 km
apogee height: 574 km
right ascension of ascending node: 101.3475°
argument of perigee: 267.9018°
revolutions per day: 14.98331887
mean anomaly at epoch: 92.1762°

The dashed part of the orbit path shows where the satellite is in the earth's shadow,  

DLR